Location: Favalello
(42.2939°N, 9.2706°E)
Time: 05:09:17
(UTC+00:00)

Cosmos 2278 Rocket - Pass Details

Date: 06 December 2019
Orbit: 843 x 844 km, 71.0° (Epoch: 25 January)

Event Time Altitude Azimuth Distance (km) Brightness Sun altitude
Rises 16:20:44 0° 344° (NNW) 3,410 5.3 -5.8°
Reaches altitude 10° 16:23:36 10° 357° (N) 2,471 4.4 -6.2°
Maximum altitude 16:28:20 27° 53° (NE) 1,585 3.1 -7.0°
Drops below altitude 10° 16:33:02 10° 110° (ESE) 2,459 4.2 -7.8°
Sets 16:35:52 0° 123° (ESE) 3,390 5.0 -8.3°
